| time (UTC) | temp F | wind direction | speed knots | gust knots | rain 1hr in | rain 24hr in | rain mn in | humidity % | barometer mb |
| 20260507105440 | 61 | 26 | 0.9 | 7.0 | 0.00 | 0.00 | 0.00 | 63 | 1014.7 |
| 20260507104939 | 61 | 279 | 0.0 | 7.0 | 0.00 | 0.00 | 0.00 | 64 | 1014.7 |
| 20260507104440 | 61 | 114 | 3.5 | 6.1 | 0.00 | 0.00 | 0.00 | 65 | 1014.8 |
| 20260507103939 | 60 | 85 | 2.6 | 7.0 | 0.00 | 0.00 | 0.00 | 62 | 1014.8 |
| 20260507103441 | 61 | 44 | 1.7 | 7.0 | 0.00 | 0.00 | 0.00 | 61 | 1015.0 |
| 20260507102942 | 61 | 107 | 3.5 | 7.0 | 0.00 | 0.00 | 0.00 | 62 | 1014.8 |
| 20260507102441 | 61 | 331 | 0.9 | 7.0 | 0.00 | 0.00 | 0.00 | 61 | 1014.7 |
| 20260507101938 | 61 | 114 | 4.3 | 7.0 | 0.00 | 0.00 | 0.00 | 66 | 1015.0 |
| 20260507101440 | 60 | 106 | 2.6 | 6.1 | 0.00 | 0.00 | 0.00 | 63 | 1014.8 |
| 20260507100938 | 59 | 71 | 2.6 | 5.2 | 0.00 | 0.00 | 0.00 | 64 | 1015.0 |
| 20260507100440 | 59 | 27 | 2.6 | 4.3 | 0.00 | 0.00 | 0.00 | 64 | 1015.0 |
| 20260507095939 | 59 | 43 | 0.9 | 4.3 | 0.00 | 0.00 | 0.00 | 66 | 1015.3 |
| 20260507094938 | 58 | 240 | 2.6 | 7.0 | 0.00 | 0.00 | 0.00 | 67 | 1014.9 |
| 20260507094441 | 60 | 331 | 2.6 | 7.8 | 0.00 | 0.00 | 0.00 | 64 | 1014.9 |
| 20260507093939 | 62 | 87 | 4.3 | 7.0 | 0.00 | 0.00 | 0.00 | 65 | 1014.8 |
| 20260507093440 | 61 | 104 | 2.6 | 4.3 | 0.00 | 0.00 | 0.00 | 69 | 1014.8 |
| 20260507091939 | 59 | 93 | 3.5 | 7.0 | 0.00 | 0.00 | 0.00 | 70 | 1014.9 |
| 20260507091441 | 59 | 343 | 1.7 | 7.0 | 0.00 | 0.00 | 0.00 | 70 | 1014.9 |
| 20260507090952 | 58 | 80 | 0.0 | 7.0 | 0.00 | 0.00 | 0.00 | 71 | 1015.0 |
| 20260507090441 | 57 | 52 | 2.6 | 7.8 | 0.00 | 0.00 | 0.00 | 71 | 1014.9 |
| 20260507085938 | 57 | 2 | 0.9 | 7.8 | 0.00 | 0.00 | 0.00 | 70 | 1014.5 |
| 20260507084939 | 58 | 337 | 1.7 | 4.3 | 0.00 | 0.00 | 0.00 | 69 | 1014.7 |
| 20260507083938 | 58 | 25 | 1.7 | 2.6 | 0.00 | 0.00 | 0.00 | 70 | 1015.1 |
| 20260507083442 | 58 | 88 | 1.7 | 4.3 | 0.00 | 0.00 | 0.00 | 71 | 1014.7 |
| 20260507082939 | 59 | 289 | 1.7 | 4.3 | 0.00 | 0.00 | 0.00 | 72 | 1014.9 |
| 20260507082440 | 58 | 114 | 1.7 | 4.3 | 0.00 | 0.00 | 0.00 | 73 | 1014.7 |
| 20260507081939 | 58 | 64 | 1.7 | 4.3 | 0.00 | 0.00 | 0.00 | 73 | 1015.0 |
| 20260507081439 | 58 | 342 | 0.0 | 4.3 | 0.00 | 0.00 | 0.00 | 72 | 1015.2 |
| 20260507080440 | 57 | 106 | 2.6 | 5.2 | 0.00 | 0.00 | 0.00 | 75 | 1015.0 |
| 20260507075939 | 57 | 81 | 3.5 | 4.3 | 0.00 | 0.00 | 0.00 | 73 | 1015.1 |
| 20260507075440 | 57 | 97 | 2.6 | 5.2 | 0.00 | 0.00 | 0.00 | 74 | 1015.1 |
| 20260507074939 | 57 | 105 | 4.3 | 5.2 | 0.00 | 0.00 | 0.00 | 74 | 1015.1 |
| 20260507074440 | 58 | 75 | 1.7 | 5.2 | 0.00 | 0.00 | 0.00 | 72 | 1015.4 |
| 20260507073941 | 58 | 92 | 1.7 | 4.3 | 0.00 | 0.00 | 0.00 | 72 | 1015.1 |
| 20260507073440 | 58 | 103 | 1.7 | 4.3 | 0.00 | 0.00 | 0.00 | 71 | 1015.4 |
| 20260507072939 | 59 | 97 | 2.6 | 4.3 | 0.00 | 0.00 | 0.00 | 69 | 1014.9 |
| 20260507072440 | 58 | 91 | 2.6 | 4.3 | 0.00 | 0.00 | 0.00 | 72 | 1014.8 |
| 20260507071939 | 57 | 50 | 0.9 | 4.3 | 0.00 | 0.00 | 0.00 | 72 | 1015.0 |
| 20260507071441 | 58 | 79 | 2.6 | 4.3 | 0.00 | 0.00 | 0.00 | 70 | 1015.0 |
| 20260507070440 | 57 | 73 | 0.9 | 2.6 | 0.00 | 0.00 | 0.00 | 72 | 1015.0 |
| 20260507065942 | 57 | 342 | 0.9 | 2.6 | 0.00 | 0.00 | 0.00 | 71 | 1014.8 |
| 20260507065440 | 56 | 69 | 0.9 | 3.5 | 0.00 | 0.00 | 0.00 | 71 | 1014.9 |
| 20260507064940 | 56 | 75 | 1.7 | 3.5 | 0.00 | 0.00 | 0.00 | 73 | 1014.9 |
| 20260507064441 | 55 | 309 | 0.9 | 1.7 | 0.00 | 0.00 | 0.00 | 73 | 1015.1 |
| 20260507063938 | 56 | 295 | 0.0 | 1.7 | 0.00 | 0.00 | 0.00 | 73 | 1015.0 |
| 20260507063443 | 55 | 110 | 0.9 | 1.7 | 0.00 | 0.00 | 0.00 | 75 | 1014.9 |
| 20260507062944 | 53 | 51 | 0.0 | 1.7 | 0.00 | 0.01 | 0.00 | 77 | 1014.8 |
| 20260507061939 | 53 | 250 | 0.9 | 1.7 | 0.00 | 0.01 | 0.00 | 77 | 1014.4 |
| 20260507061440 | 53 | 271 | 0.0 | 1.7 | 0.00 | 0.01 | 0.00 | 78 | 1014.5 |
| 20260507060939 | 52 | 241 | 0.0 | 1.7 | 0.00 | 0.01 | 0.00 | 78 | 1014.1 |
| 20260507060440 | 52 | 248 | 0.0 | 0.9 | 0.00 | 0.01 | 0.00 | 80 | 1014.3 |
| 20260507055939 | 50 | 279 | 0.0 | 1.7 | 0.00 | 0.01 | 0.00 | 81 | 1014.4 |
| 20260507055440 | 49 | 245 | 0.0 | 1.7 | 0.00 | 0.01 | 0.00 | 80 | 1014.3 |
| 20260507054940 | 49 | 226 | 0.9 | 1.7 | 0.00 | 0.01 | 0.00 | 81 | 1014.2 |
| 20260507054440 | 49 | 242 | 0.0 | 1.7 | 0.00 | 0.01 | 0.00 | 82 | 1014.1 |
| 20260507052940 | 46 | 231 | 0.0 | 2.6 | 0.00 | 0.01 | 0.00 | 84 | 1014.0 |
| 20260507052441 | 46 | 251 | 1.7 | 2.6 | 0.00 | 0.01 | 0.00 | 84 | 1014.2 |
| 20260507051953 | 46 | 243 | 1.7 | 2.6 | 0.00 | 0.01 | 0.00 | 85 | 1014.3 |
| 20260507051445 | 46 | 238 | 0.9 | 1.7 | 0.00 | 0.01 | 0.00 | 87 | 1014.0 |
| 20260507050940 | 45 | 275 | 0.0 | 1.7 | 0.00 | 0.01 | 0.00 | 88 | 1013.9 |
| 20260507050442 | 45 | 246 | 0.0 | 1.7 | 0.00 | 0.01 | 0.00 | 89 | 1013.8 |
| 20260507045940 | 44 | 100 | 0.9 | 1.7 | 0.00 | 0.01 | 0.00 | 90 | 1013.8 |
| 20260507045443 | 43 | 172 | 0.0 | 0.9 | 0.00 | 0.01 | 0.00 | 90 | 1013.9 |
| 20260507044930 | 42 | 50 | 0.0 | 0.9 | 0.00 | 0.01 | 0.00 | 90 | 1013.8 |
| 20260507044426 | 42 | 269 | 0.0 | 1.7 | 0.00 | 0.01 | 0.00 | 90 | 1013.7 |
| 20260507043927 | 42 | 95 | 0.0 | 1.7 | 0.00 | 0.01 | 0.00 | 90 | 1013.8 |
| 20260507043427 | 42 | 80 | 0.0 | 1.7 | 0.00 | 0.01 | 0.00 | 90 | 1013.6 |
| 20260507042926 | 42 | 254 | 0.0 | 1.7 | 0.00 | 0.01 | 0.00 | 90 | 1013.6 |
| 20260507042428 | 42 | 109 | 0.0 | 1.7 | 0.00 | 0.01 | 0.00 | 90 | 1013.6 |
| 20260507041915 | 42 | 99 | 0.0 | 1.7 | 0.00 | 0.01 | 0.00 | 90 | 1013.7 |
| 20260507041415 | 42 | 77 | 0.9 | 1.7 | 0.00 | 0.01 | 0.00 | 90 | 1013.6 |
| 20260507040915 | 42 | 92 | 0.0 | 1.7 | 0.00 | 0.01 | 0.00 | 90 | 1013.8 |
| 20260507040415 | 42 | 95 | 0.0 | 1.7 | 0.00 | 0.01 | 0.00 | 90 | 1013.7 |
| 20260507035915 | 42 | 79 | 0.9 | 1.7 | 0.00 | 0.02 | 0.00 | 90 | 1013.6 |
| 20260507035415 | 43 | 107 | 0.9 | 1.7 | 0.00 | 0.02 | 0.00 | 90 | 1013.5 |
| 20260507033415 | 43 | 126 | 0.0 | 2.6 | 0.00 | 0.02 | 0.00 | 90 | 1013.3 |
| 20260507032914 | 43 | 76 | 0.0 | 2.6 | 0.00 | 0.02 | 0.00 | 90 | 1013.5 |
| 20260507031915 | 43 | 99 | 0.0 | 0.9 | 0.00 | 0.03 | 0.00 | 90 | 1013.5 |
| 20260507031415 | 43 | 74 | 0.0 | 0.9 | 0.00 | 0.03 | 0.00 | 90 | 1013.3 |
| 20260507030402 | 43 | 91 | 0.0 | 0.0 | 0.00 | 0.03 | 0.00 | 90 | 1013.4 |
| 20260507025904 | 43 | 219 | 0.0 | 0.0 | 0.00 | 0.03 | 0.00 | 90 | 1013.4 |
| 20260507024338 | 43 | 186 | 0.0 | 0.9 | 0.00 | 0.03 | 0.00 | 90 | 1013.6 |
| 20260507023852 | 43 | 94 | 0.0 | 1.7 | 0.00 | 0.03 | 0.00 | 90 | 1013.7 |
| 20260507022852 | 44 | 190 | 0.0 | 1.7 | 0.00 | 0.03 | 0.00 | 89 | 1013.6 |
| 20260507022339 | 44 | 213 | 0.0 | 1.7 | 0.00 | 0.03 | 0.00 | 89 | 1013.5 |
| 20260507021838 | 44 | 234 | 0.0 | 0.9 | 0.00 | 0.03 | 0.00 | 89 | 1013.5 |
| 20260507021352 | 44 | 199 | 0.0 | 0.9 | 0.00 | 0.03 | 0.00 | 89 | 1013.4 |
| 20260507020840 | 44 | 126 | 0.0 | 0.9 | 0.00 | 0.03 | 0.00 | 89 | 1013.3 |
| 20260507020340 | 45 | 180 | 0.0 | 0.9 | 0.00 | 0.04 | 0.00 | 89 | 1013.3 |
| 20260507015855 | 45 | 227 | 0.0 | 0.9 | 0.00 | 0.04 | 0.00 | 89 | 1013.4 |
| 20260507015331 | 45 | 207 | 0.0 | 0.9 | 0.00 | 0.04 | 0.00 | 89 | 1013.4 |
| 20260507014830 | 45 | 89 | 0.0 | 0.0 | 0.00 | 0.04 | 0.00 | 89 | 1013.6 |
| 20260507014330 | 45 | 89 | 0.0 | 0.0 | 0.00 | 0.04 | 0.00 | 89 | 1013.2 |
| 20260507013831 | 45 | 89 | 0.0 | 0.0 | 0.00 | 0.04 | 0.00 | 89 | 1013.2 |
| 20260507013330 | 45 | 89 | 0.0 | 1.7 | 0.00 | 0.04 | 0.00 | 88 | 1013.3 |
| 20260507012829 | 45 | 89 | 0.0 | 1.7 | 0.00 | 0.04 | 0.00 | 88 | 1013.4 |
| 20260507012330 | 45 | 53 | 0.0 | 1.7 | 0.00 | 0.04 | 0.00 | 88 | 1013.5 |
| 20260507011831 | 45 | 87 | 0.0 | 1.7 | 0.00 | 0.04 | 0.00 | 88 | 1013.2 |
| 20260507011330 | 45 | 71 | 0.0 | 1.7 | 0.00 | 0.04 | 0.00 | 88 | 1013.3 |
| 20260507010830 | 45 | 79 | 0.0 | 0.9 | 0.00 | 0.04 | 0.00 | 88 | 1013.3 |
| 20260507010331 | 46 | 90 | 0.0 | 0.9 | 0.00 | 0.05 | 0.00 | 88 | 1013.1 |
| 20260507005330 | 46 | 209 | 0.0 | 0.9 | 0.00 | 0.05 | 0.00 | 88 | 1013.2 |
| 20260507004832 | 46 | 133 | 0.0 | 0.0 | 0.00 | 0.05 | 0.00 | 88 | 1013.1 |
| 20260507004331 | 46 | 245 | 0.0 | 0.9 | 0.00 | 0.05 | 0.00 | 88 | 1013.3 |
| 20260507003835 | 46 | 245 | 0.0 | 1.7 | 0.00 | 0.05 | 0.00 | 88 | 1013.1 |
| 20260507003332 | 46 | 37 | 0.0 | 1.7 | 0.00 | 0.05 | 0.00 | 88 | 1013.1 |
| 20260507002831 | 46 | 66 | 0.0 | 0.0 | 0.00 | 0.05 | 0.00 | 88 | 1013.1 |
| 20260507002333 | 47 | 269 | 0.0 | 0.9 | 0.00 | 0.05 | 0.00 | 87 | 1013.0 |
| 20260507001831 | 47 | 65 | 0.0 | 2.6 | 0.00 | 0.05 | 0.00 | 87 | 1013.2 |
| 20260507001330 | 47 | 57 | 0.0 | 2.6 | 0.00 | 0.05 | 0.00 | 87 | 1013.1 |
| 20260507000830 | 47 | 61 | 0.0 | 1.7 | 0.00 | 0.05 | 0.00 | 87 | 1013.0 |
| 20260506235331 | 47 | 66 | 0.0 | 0.9 | 0.00 | 0.05 | 0.00 | 86 | 1013.0 |
| 20260506234831 | 48 | 70 | 0.0 | 1.7 | 0.00 | 0.05 | 0.00 | 86 | 1013.1 |
| 20260506234333 | 48 | 68 | 0.0 | 1.7 | 0.00 | 0.05 | 0.00 | 86 | 1013.0 |
| 20260506233830 | 48 | 68 | 0.0 | 1.7 | 0.00 | 0.05 | 0.00 | 86 | 1013.0 |
| 20260506232330 | 49 | 61 | 0.0 | 1.7 | 0.00 | 0.05 | 0.00 | 86 | 1013.2 |
| 20260506231830 | 49 | 22 | 1.7 | 1.7 | 0.00 | 0.05 | 0.00 | 86 | 1013.0 |
| 20260506231330 | 49 | 9 | 0.0 | 1.7 | 0.00 | 0.05 | 0.00 | 86 | 1013.0 |
| 20260506230830 | 49 | 36 | 0.0 | 1.7 | 0.00 | 0.05 | 0.00 | 86 | 1013.0 |
| 20260506225831 | 49 | 77 | 0.9 | 1.7 | 0.00 | 0.05 | 0.00 | 86 | 1013.0 |
| 20260506225334 | 49 | 37 | 0.0 | 1.7 | 0.00 | 0.05 | 0.00 | 86 | 1013.0 |
| 20260506224832 | 49 | 33 | 0.0 | 1.7 | 0.00 | 0.05 | 0.00 | 85 | 1012.9 |
| 20260506224332 | 49 | 94 | 0.0 | 1.7 | 0.00 | 0.05 | 0.00 | 85 | 1013.0 |
| 20260506223831 | 49 | 95 | 0.0 | 0.9 | 0.00 | 0.05 | 0.00 | 85 | 1012.9 |
| 20260506223334 | 49 | 283 | 0.0 | 0.9 | 0.00 | 0.05 | 0.00 | 84 | 1012.9 |
| 20260506222831 | 49 | 232 | 0.0 | 0.9 | 0.00 | 0.05 | 0.00 | 84 | 1012.8 |
| 20260506222323 | 49 | 73 | 0.0 | 0.9 | 0.00 | 0.05 | 0.00 | 83 | 1012.7 |
| 20260506221818 | 50 | 111 | 0.0 | 0.9 | 0.00 | 0.05 | 0.00 | 83 | 1012.8 |
| 20260506220755 | 50 | 259 | 0.0 | 1.7 | 0.00 | 0.05 | 0.00 | 82 | 1012.8 |
| 20260506220245 | 51 | 249 | 0.0 | 1.7 | 0.00 | 0.05 | 0.00 | 82 | 1012.9 |
| 20260506215744 | 51 | 264 | 0.9 | 1.7 | 0.00 | 0.05 | 0.05 | 82 | 1012.8 |
| 20260506215243 | 51 | 245 | 0.0 | 1.7 | 0.00 | 0.05 | 0.05 | 81 | 1012.9 |
| 20260506214731 | 51 | 284 | 0.0 | 1.7 | 0.00 | 0.05 | 0.05 | 81 | 1012.8 |
| 20260506214231 | 51 | 256 | 0.0 | 1.7 | 0.00 | 0.05 | 0.05 | 81 | 1012.9 |
| 20260506213731 | 51 | 281 | 1.7 | 1.7 | 0.00 | 0.05 | 0.05 | 81 | 1012.5 |
| 20260506213231 | 51 | 263 | 0.9 | 1.7 | 0.00 | 0.05 | 0.05 | 81 | 1012.9 |
| 20260506212733 | 51 | 283 | 0.9 | 2.6 | 0.00 | 0.05 | 0.05 | 81 | 1012.6 |
| 20260506212231 | 51 | 310 | 0.9 | 2.6 | 0.00 | 0.05 | 0.05 | 80 | 1012.6 |
| 20260506211731 | 52 | 312 | 0.9 | 2.6 | 0.00 | 0.05 | 0.05 | 80 | 1012.7 |
| 20260506211232 | 52 | 314 | 0.9 | 3.5 | 0.00 | 0.05 | 0.05 | 79 | 1012.5 |
| 20260506210732 | 52 | 325 | 1.7 | 3.5 | 0.00 | 0.05 | 0.05 | 79 | 1012.5 |
| 20260506210232 | 52 | 307 | 2.6 | 3.5 | 0.00 | 0.05 | 0.05 | 79 | 1012.4 |
| 20260506205231 | 53 | 312 | 0.9 | 5.2 | 0.00 | 0.05 | 0.05 | 78 | 1012.4 |
| 20260506204734 | 53 | 270 | 4.3 | 7.0 | 0.00 | 0.05 | 0.05 | 78 | 1012.6 |
| 20260506204231 | 53 | 298 | 2.6 | 7.0 | 0.00 | 0.05 | 0.05 | 77 | 1012.4 |
| 20260506203732 | 53 | 277 | 2.6 | 4.3 | 0.00 | 0.05 | 0.05 | 78 | 1012.5 |
| 20260506203233 | 53 | 330 | 1.7 | 4.3 | 0.00 | 0.05 | 0.05 | 77 | 1012.3 |
| 20260506202231 | 53 | 286 | 1.7 | 4.3 | 0.00 | 0.05 | 0.05 | 77 | 1012.2 |
| 20260506201731 | 54 | 32 | 0.9 | 4.3 | 0.00 | 0.05 | 0.05 | 76 | 1012.1 |
| 20260506201223 | 54 | 249 | 1.7 | 5.2 | 0.00 | 0.05 | 0.05 | 76 | 1012.2 |
| 20260506200717 | 54 | 9 | 1.7 | 5.2 | 0.00 | 0.05 | 0.05 | 75 | 1012.0 |
| 20260506200217 | 54 | 355 | 0.9 | 3.5 | 0.00 | 0.05 | 0.05 | 75 | 1011.8 |
| 20260506195720 | 54 | 332 | 1.7 | 4.3 | 0.00 | 0.05 | 0.05 | 75 | 1011.8 |
| 20260506194718 | 54 | 54 | 0.0 | 4.3 | 0.00 | 0.05 | 0.05 | 75 | 1011.7 |
| 20260506193718 | 55 | 314 | 0.0 | 4.3 | 0.00 | 0.05 | 0.05 | 76 | 1011.4 |
| 20260506193217 | 55 | 322 | 0.0 | 1.7 | 0.00 | 0.05 | 0.05 | 76 | 1011.4 |
| 20260506192706 | 55 | 331 | 0.0 | 1.7 | 0.00 | 0.05 | 0.05 | 76 | 1011.2 |
| 20260506192208 | 55 | 34 | 0.0 | 2.6 | 0.00 | 0.05 | 0.05 | 75 | 1011.3 |
| 20260506191706 | 55 | 89 | 0.0 | 2.6 | 0.00 | 0.05 | 0.05 | 75 | 1011.2 |
| 20260506191206 | 55 | 34 | 1.7 | 2.6 | 0.00 | 0.05 | 0.05 | 74 | 1011.3 |
| 20260506190710 | 56 | 8 | 1.7 | 2.6 | 0.00 | 0.05 | 0.05 | 74 | 1011.2 |
| 20260506190206 | 56 | 85 | 0.0 | 3.5 | 0.00 | 0.05 | 0.05 | 73 | 1011.0 |
| 20260506185706 | 56 | 59 | 1.7 | 4.3 | 0.00 | 0.05 | 0.05 | 72 | 1011.0 |
| 20260506185206 | 56 | 25 | 3.5 | 5.2 | 0.00 | 0.05 | 0.05 | 72 | 1011.0 |
| 20260506184706 | 56 | 282 | 3.5 | 5.2 | 0.00 | 0.05 | 0.05 | 71 | 1011.2 |
| 20260506184205 | 56 | 43 | 2.6 | 5.2 | 0.00 | 0.05 | 0.05 | 70 | 1011.1 |
| 20260506183708 | 56 | 28 | 2.6 | 6.1 | 0.00 | 0.05 | 0.05 | 70 | 1011.0 |
| 20260506183208 | 56 | 316 | 0.9 | 6.1 | 0.00 | 0.05 | 0.05 | 69 | 1010.8 |
| 20260506182708 | 57 | 70 | 5.2 | 5.2 | 0.00 | 0.05 | 0.05 | 68 | 1010.8 |
| 20260506182206 | 57 | 10 | 2.6 | 7.0 | 0.00 | 0.05 | 0.05 | 68 | 1010.8 |
| 20260506181209 | 57 | 305 | 2.6 | 5.2 | 0.00 | 0.05 | 0.05 | 67 | 1010.5 |
| 20260506180707 | 58 | 309 | 1.7 | 7.8 | 0.00 | 0.05 | 0.05 | 67 | 1010.5 |
| 20260506180218 | 58 | 5 | 1.7 | 7.8 | 0.00 | 0.05 | 0.05 | 67 | 1010.5 |
| 20260506175706 | 58 | 277 | 5.2 | 7.8 | 0.00 | 0.05 | 0.05 | 67 | 1010.3 |
| 20260506175206 | 58 | 4 | 1.7 | 7.8 | 0.00 | 0.05 | 0.05 | 67 | 1010.4 |
| 20260506174711 | 58 | 260 | 3.5 | 7.8 | 0.00 | 0.05 | 0.05 | 67 | 1010.3 |
| 20260506174209 | 58 | 291 | 2.6 | 5.2 | 0.00 | 0.05 | 0.05 | 69 | 1010.0 |
| 20260506173707 | 58 | 266 | 2.6 | 5.2 | 0.00 | 0.05 | 0.05 | 69 | 1010.1 |
| 20260506173207 | 58 | 303 | 1.7 | 5.2 | 0.00 | 0.05 | 0.05 | 69 | 1009.9 |
| 20260506172706 | 58 | 296 | 1.7 | 5.2 | 0.00 | 0.05 | 0.05 | 69 | 1009.9 |
| 20260506172206 | 58 | 274 | 1.7 | 4.3 | 0.00 | 0.05 | 0.05 | 69 | 1009.9 |
| 20260506171705 | 58 | 287 | 3.5 | 5.2 | 0.00 | 0.05 | 0.05 | 68 | 1009.9 |
| 20260506171206 | 58 | 323 | 1.7 | 5.2 | 0.00 | 0.05 | 0.05 | 68 | 1010.2 |
| 20260506170706 | 58 | 268 | 2.6 | 5.2 | 0.00 | 0.05 | 0.05 | 68 | 1010.0 |
| 20260506170208 | 58 | 265 | 2.6 | 5.2 | 0.00 | 0.05 | 0.05 | 67 | 1010.0 |
| 20260506165706 | 58 | 281 | 4.3 | 6.1 | 0.00 | 0.05 | 0.05 | 67 | 1010.0 |
| 20260506164206 | 59 | 261 | 5.2 | 7.8 | 0.00 | 0.06 | 0.05 | 65 | 1010.0 |
| 20260506163709 | 59 | 285 | 3.5 | 4.3 | 0.00 | 0.06 | 0.05 | 64 | 1009.9 |
| 20260506163205 | 59 | 274 | 2.6 | 4.3 | 0.00 | 0.06 | 0.05 | 63 | 1009.8 |
| 20260506162710 | 59 | 314 | 1.7 | 7.0 | 0.00 | 0.06 | 0.05 | 62 | 1009.9 |
| 20260506162211 | 60 | 284 | 2.6 | 11.3 | 0.00 | 0.06 | 0.05 | 61 | 1009.9 |
| 20260506161718 | 60 | 294 | 2.6 | 11.3 | 0.00 | 0.06 | 0.05 | 59 | 1010.4 |
| 20260506161212 | 60 | 266 | 6.1 | 9.6 | 0.00 | 0.06 | 0.05 | 61 | 1010.4 |
| 20260506160705 | 60 | 266 | 3.5 | 7.8 | 0.00 | 0.06 | 0.05 | 61 | 1010.2 |
| 20260506160218 | 60 | 347 | 1.7 | 10.4 | 0.00 | 0.06 | 0.05 | 59 | 1010.3 |
| 20260506155706 | 60 | 304 | 1.7 | 10.4 | 0.00 | 0.06 | 0.05 | 62 | 1010.2 |
| 20260506155205 | 60 | 6 | 3.5 | 7.0 | 0.00 | 0.06 | 0.05 | 61 | 1010.7 |
| 20260506154706 | 60 | 258 | 0.9 | 7.0 | 0.00 | 0.06 | 0.05 | 65 | 1010.3 |
| 20260506153706 | 59 | 2 | 1.7 | 5.2 | 0.00 | 0.06 | 0.05 | 64 | 1010.1 |
| 20260506153206 | 59 | 346 | 1.7 | 7.0 | 0.00 | 0.06 | 0.05 | 64 | 1010.0 |
| 20260506152706 | 59 | 267 | 3.5 | 7.0 | 0.00 | 0.06 | 0.05 | 64 | 1009.9 |
| 20260506152206 | 59 | 318 | 1.7 | 6.1 | 0.00 | 0.06 | 0.05 | 66 | 1010.1 |
| 20260506151706 | 59 | 20 | 3.5 | 5.2 | 0.00 | 0.06 | 0.05 | 65 | 1010.1 |
| 20260506151206 | 59 | 306 | 2.6 | 5.2 | 0.00 | 0.06 | 0.05 | 66 | 1010.0 |
| 20260506150706 | 59 | 3 | 1.7 | 5.2 | 0.00 | 0.06 | 0.05 | 65 | 1009.8 |
| 20260506150206 | 59 | 272 | 1.7 | 5.2 | 0.00 | 0.06 | 0.05 | 65 | 1009.9 |
| 20260506145706 | 59 | 321 | 3.5 | 5.2 | 0.00 | 0.06 | 0.05 | 64 | 1010.0 |
| 20260506145206 | 59 | 28 | 2.6 | 7.8 | 0.00 | 0.06 | 0.05 | 63 | 1010.1 |
| 20260506144720 | 59 | 104 | 2.6 | 10.4 | 0.00 | 0.06 | 0.05 | 65 | 1010.1 |
| 20260506144209 | 58 | 297 | 4.3 | 10.4 | 0.00 | 0.06 | 0.05 | 65 | 1010.1 |
| 20260506143706 | 58 | 257 | 2.6 | 7.0 | 0.00 | 0.06 | 0.05 | 66 | 1010.2 |
| 20260506143205 | 59 | 325 | 2.6 | 6.1 | 0.00 | 0.06 | 0.05 | 66 | 1010.1 |
| 20260506142706 | 58 | 63 | 5.2 | 5.2 | 0.00 | 0.06 | 0.05 | 64 | 1010.4 |
| 20260506142205 | 58 | 328 | 2.6 | 5.2 | 0.00 | 0.06 | 0.05 | 64 | 1010.3 |
| 20260506141206 | 58 | 265 | 3.5 | 7.0 | 0.00 | 0.07 | 0.05 | 69 | 1010.2 |
| 20260506140705 | 58 | 303 | 2.6 | 8.7 | 0.00 | 0.07 | 0.05 | 67 | 1010.3 |
| 20260506140206 | 58 | 280 | 3.5 | 8.7 | 0.00 | 0.07 | 0.05 | 67 | 1010.3 |
| 20260506135705 | 58 | 282 | 2.6 | 11.3 | 0.00 | 0.07 | 0.05 | 69 | 1010.1 |
| 20260506135208 | 57 | 331 | 2.6 | 11.3 | 0.00 | 0.07 | 0.05 | 72 | 1010.4 |
| 20260506134706 | 57 | 284 | 3.5 | 8.7 | 0.00 | 0.07 | 0.05 | 71 | 1010.3 |
| 20260506134206 | 57 | 303 | 3.5 | 8.7 | 0.00 | 0.07 | 0.05 | 71 | 1010.3 |
| 20260506133705 | 57 | 285 | 2.6 | 7.8 | 0.00 | 0.07 | 0.05 | 71 | 1010.2 |
| 20260506133206 | 57 | 257 | 5.2 | 6.1 | 0.00 | 0.08 | 0.05 | 73 | 1010.8 |
| 20260506132706 | 57 | 246 | 1.7 | 6.1 | 0.00 | 0.08 | 0.05 | 71 | 1010.4 |
| 20260506132206 | 58 | 282 | 3.5 | 5.2 | 0.00 | 0.08 | 0.05 | 73 | 1010.4 |
| 20260506131206 | 57 | 288 | 3.5 | 6.1 | 0.00 | 0.08 | 0.05 | 73 | 1010.2 |
| 20260506130706 | 57 | 29 | 1.7 | 5.2 | 0.00 | 0.09 | 0.05 | 72 | 1010.2 |
| 20260506130206 | 57 | 359 | 1.7 | 8.7 | 0.00 | 0.09 | 0.05 | 73 | 1010.3 |
| 20260506125711 | 56 | 344 | 1.7 | 8.7 | 0.00 | 0.09 | 0.05 | 75 | 1010.1 |
| 20260506125206 | 56 | 266 | 3.5 | 4.3 | 0.00 | 0.10 | 0.05 | 75 | 1010.2 |
| 20260506124706 | 56 | 101 | 1.7 | 4.3 | 0.00 | 0.10 | 0.05 | 75 | 1010.1 |
| 20260506124206 | 56 | 292 | 1.7 | 4.3 | 0.00 | 0.10 | 0.05 | 77 | 1010.4 |
| 20260506123706 | 55 | 81 | 2.6 | 5.2 | 0.00 | 0.11 | 0.05 | 77 | 1010.1 |
| 20260506123205 | 55 | 2 | 3.5 | 5.2 | 0.00 | 0.11 | 0.05 | 76 | 1010.1 |
| 20260506122706 | 55 | 325 | 2.6 | 6.1 | 0.00 | 0.11 | 0.05 | 79 | 1010.5 |
| 20260506122206 | 55 | 7 | 1.7 | 6.1 | 0.00 | 0.12 | 0.05 | 78 | 1010.3 |
| 20260506121718 | 55 | 304 | 1.7 | 4.3 | 0.00 | 0.12 | 0.05 | 79 | 1010.3 |
| 20260506121206 | 55 | 78 | 2.6 | 7.0 | 0.00 | 0.13 | 0.05 | 79 | 1010.2 |
| 20260506120706 | 54 | 264 | 2.6 | 7.0 | 0.00 | 0.13 | 0.05 | 79 | 1010.2 |
| 20260506120209 | 54 | 359 | 0.9 | 7.0 | 0.00 | 0.13 | 0.05 | 81 | 1010.1 |
| 20260506115706 | 54 | 320 | 1.7 | 7.0 | 0.00 | 0.14 | 0.05 | 81 | 1010.2 |
| 20260506115206 | 54 | 268 | 5.2 | 7.0 | 0.00 | 0.14 | 0.05 | 81 | 1010.2 |
| 20260506114707 | 54 | 91 | 2.6 | 4.3 | 0.00 | 0.15 | 0.05 | 79 | 1010.1 |
| 20260506114206 | 55 | 282 | 1.7 | 4.3 | 0.00 | 0.15 | 0.05 | 79 | 1010.2 |
| 20260506113706 | 55 | 290 | 1.7 | 7.0 | 0.00 | 0.15 | 0.05 | 79 | 1010.0 |
| 20260506113207 | 54 | 15 | 0.0 | 7.0 | 0.00 | 0.15 | 0.05 | 78 | 1010.2 |
| 20260506112706 | 54 | 36 | 1.7 | 5.2 | 0.00 | 0.16 | 0.05 | 80 | 1010.3 |
| 20260506112207 | 54 | 64 | 2.6 | 4.3 | 0.00 | 0.16 | 0.05 | 82 | 1010.0 |
| 20260506111706 | 54 | 346 | 2.6 | 5.2 | 0.00 | 0.16 | 0.05 | 82 | 1010.2 |
| 20260506111209 | 54 | 269 | 3.5 | 5.2 | 0.00 | 0.17 | 0.05 | 82 | 1010.1 |
| 20260506110205 | 53 | 346 | 2.6 | 5.2 | 0.00 | 0.18 | 0.05 | 83 | 1010.1 |